contact:dominique.lefevre@mio.osupytheas.fr, maurice.libes@osupytheas.fr, didier.mallarino@osupytheas.fr
Project:EMSO http://www.emso-fr.org/EMSO-France
Depth: 2436.0 m
Title:EMSO Ligure Ouest : Data MII capteur MICROCAT
DateTime_Computer,Latitude,Longitude,Temperature,Conductivity,Pressure,DateTime_Instrument
DateTime_Computer,Latitude,Longitude,degC,S m-1,dbar,DateTime_Instrument
2020-12-07T00:00:38Z,42.805,6.029,13.2978,4.59981,2470.203,2020-12-07T02:01:36Z
2020-12-07T00:03:41Z,42.805,6.029,13.2982,4.59983,2470.18,2020-12-07T02:04:39Z
2020-12-07T00:06:44Z,42.805,6.029,13.2980,4.59981,2470.203,2020-12-07T02:07:42Z
2020-12-07T00:09:47Z,42.805,6.029,13.2979,4.59981,2470.25,2020-12-07T02:10:45Z
2020-12-07T00:12:50Z,42.805,6.029,13.2979,4.59981,2470.18,2020-12-07T02:13:49Z
2020-12-07T00:15:53Z,42.805,6.029,13.2976,4.59981,2470.24,2020-12-07T02:16:52Z
2020-12-07T00:18:57Z,42.805,6.029,13.2979,4.59981,2470.227,2020-12-07T02:19:55Z
2020-12-07T00:22:00Z,42.805,6.029,13.2983,4.59981,2470.217,2020-12-07T02:22:58Z
2020-12-07T00:25:03Z,42.805,6.029,13.2974,4.59981,2470.24,2020-12-07T02:26:01Z
2020-12-07T00:28:06Z,42.805,6.029,13.2979,4.59981,2470.227,2020-12-07T02:29:04Z
2020-12-07T00:31:09Z,42.805,6.029,13.2982,4.59982,2470.227,2020-12-07T02:32:07Z
2020-12-07T00:34:12Z,42.805,6.029,13.2982,4.59983,2470.227,2020-12-07T02:35:10Z
2020-12-07T00:37:15Z,42.805,6.029,13.2983,4.59982,2470.194,2020-12-07T02:38:14Z
2020-12-07T00:40:18Z,42.805,6.029,13.2983,4.59986,2470.18,2020-12-07T02:41:17Z
2020-12-07T00:43:22Z,42.805,6.029,13.2979,4.59981,2470.24,2020-12-07T02:44:20Z
2020-12-07T00:46:25Z,42.805,6.029,13.2982,4.59982,2470.203,2020-12-07T02:47:23Z
2020-12-07T00:49:28Z,42.805,6.029,13.2982,4.59983,2470.203,2020-12-07T02:50:26Z
2020-12-07T00:52:31Z,42.805,6.029,13.2979,4.59981,2470.203,2020-12-07T02:53:29Z
2020-12-07T00:55:34Z,42.805,6.029,13.2983,4.59983,2470.217,2020-12-07T02:56:32Z
2020-12-07T00:58:37Z,42.805,6.029,13.2982,4.59985,2470.217,2020-12-07T02:59:35Z
2020-12-07T01:01:40Z,42.805,6.029,13.2979,4.59981,2470.203,2020-12-07T03:02:38Z
2020-12-07T01:04:43Z,42.805,6.029,13.2979,4.59983,2470.24,2020-12-07T03:05:42Z
2020-12-07T01:07:46Z,42.805,6.029,13.2981,4.59982,2470.227,2020-12-07T03:08:45Z
2020-12-07T01:10:50Z,42.805,6.029,13.2976,4.59983,2470.18,2020-12-07T03:11:48Z
2020-12-07T01:13:53Z,42.805,6.029,13.2982,4.59981,2470.24,2020-12-07T03:14:51Z
2020-12-07T01:16:56Z,42.805,6.029,13.2982,4.59981,2470.217,2020-12-07T03:17:54Z
2020-12-07T01:19:59Z,42.805,6.029,13.2976,4.59981,2470.18,2020-12-07T03:20:57Z
2020-12-07T01:23:02Z,42.805,6.029,13.2977,4.59982,2470.18,2020-12-07T03:24:00Z
2020-12-07T01:26:05Z,42.805,6.029,13.2978,4.59981,2470.203,2020-12-07T03:27:03Z
2020-12-07T01:29:08Z,42.805,6.029,13.2978,4.59982,2470.217,2020-12-07T03:30:07Z
2020-12-07T01:32:11Z,42.805,6.029,13.2980,4.59983,2470.217,2020-12-07T03:33:10Z
2020-12-07T01:35:15Z,42.805,6.029,13.2979,4.59981,2470.24,2020-12-07T03:36:13Z
2020-12-07T01:38:18Z,42.805,6.029,13.2979,4.59981,2470.217,2020-12-07T03:39:16Z
2020-12-07T01:41:21Z,42.805,6.029,13.2978,4.59982,2470.217,2020-12-07T03:42:19Z
2020-12-07T01:44:24Z,42.805,6.029,13.2979,4.59984,2470.203,2020-12-07T03:45:22Z
2020-12-07T01:47:27Z,42.805,6.029,13.2982,4.59982,2470.217,2020-12-07T03:48:25Z
2020-12-07T01:50:30Z,42.805,6.029,13.2979,4.59982,2470.217,2020-12-07T03:51:28Z
2020-12-07T01:53:33Z,42.805,6.029,13.2976,4.59981,2470.217,2020-12-07T03:54:32Z
2020-12-07T01:56:36Z,42.805,6.029,13.2982,4.59981,2470.24,2020-12-07T03:57:35Z
2020-12-07T01:59:40Z,42.805,6.029,13.2979,4.59981,2470.227,2020-12-07T04:00:38Z
2020-12-07T02:02:43Z,42.805,6.029,13.2980,4.59981,2470.189,2020-12-07T04:03:41Z
2020-12-07T02:05:46Z,42.805,6.029,13.2978,4.59983,2470.227,2020-12-07T04:06:44Z
2020-12-07T02:08:49Z,42.805,6.029,13.2979,4.59984,2470.217,2020-12-07T04:09:47Z
2020-12-07T02:11:52Z,42.805,6.029,13.2979,4.59984,2470.217,2020-12-07T04:12:50Z
2020-12-07T02:14:55Z,42.805,6.029,13.2978,4.59982,2470.18,2020-12-07T04:15:53Z
2020-12-07T02:17:58Z,42.805,6.029,13.2979,4.59982,2470.24,2020-12-07T04:18:56Z
2020-12-07T02:21:01Z,42.805,6.029,13.2981,4.59981,2470.194,2020-12-07T04:22:00Z
2020-12-07T02:24:04Z,42.805,6.029,13.2977,4.59981,2470.203,2020-12-07T04:25:03Z
2020-12-07T02:27:08Z,42.805,6.029,13.2976,4.59981,2470.18,2020-12-07T04:28:06Z
2020-12-07T02:30:11Z,42.805,6.029,13.2977,4.59981,2470.203,2020-12-07T04:31:09Z
2020-12-07T02:33:14Z,42.805,6.029,13.2980,4.59981,2470.18,2020-12-07T04:34:12Z
2020-12-07T02:36:17Z,42.805,6.029,13.2982,4.59983,2470.18,2020-12-07T04:37:15Z
2020-12-07T02:39:20Z,42.805,6.029,13.2980,4.59981,2470.227,2020-12-07T04:40:18Z
2020-12-07T02:42:23Z,42.805,6.029,13.2979,4.59981,2470.18,2020-12-07T04:43:21Z
2020-12-07T02:45:26Z,42.805,6.029,13.2983,4.59981,2470.203,2020-12-07T04:46:25Z
2020-12-07T02:48:29Z,42.805,6.029,13.2976,4.59981,2470.217,2020-12-07T04:49:28Z
2020-12-07T02:51:33Z,42.805,6.029,13.2981,4.59982,2470.203,2020-12-07T04:52:31Z
2020-12-07T02:54:36Z,42.805,6.029,13.2982,4.59982,2470.213,2020-12-07T04:55:34Z
2020-12-07T02:57:39Z,42.805,6.029,13.2978,4.59982,2470.18,2020-12-07T04:58:37Z
2020-12-07T03:00:42Z,42.805,6.029,13.2983,4.59982,2470.18,2020-12-07T05:01:40Z
2020-12-07T03:03:45Z,42.805,6.029,13.2979,4.59982,2470.18,2020-12-07T05:04:43Z
2020-12-07T03:06:48Z,42.805,6.029,13.2982,4.59983,2470.156,2020-12-07T05:07:46Z
2020-12-07T03:09:51Z,42.805,6.029,13.2981,4.59981,2470.194,2020-12-07T05:10:49Z
2020-12-07T03:12:54Z,42.805,6.029,13.2982,4.59984,2470.217,2020-12-07T05:13:53Z
2020-12-07T03:15:57Z,42.805,6.029,13.2982,4.59982,2470.18,2020-12-07T05:16:56Z
2020-12-07T03:19:01Z,42.805,6.029,13.2982,4.59983,2470.217,2020-12-07T05:19:59Z
2020-12-07T03:22:04Z,42.805,6.029,13.2979,4.59982,2470.156,2020-12-07T05:23:02Z
2020-12-07T03:25:07Z,42.805,6.029,13.2979,4.59982,2470.156,2020-12-07T05:26:05Z
2020-12-07T03:28:10Z,42.805,6.029,13.2979,4.59981,2470.18,2020-12-07T05:29:08Z
2020-12-07T03:31:13Z,42.805,6.029,13.2983,4.59982,2470.18,2020-12-07T05:32:11Z
2020-12-07T03:34:16Z,42.805,6.029,13.2979,4.59982,2470.18,2020-12-07T05:35:14Z
2020-12-07T03:37:19Z,42.805,6.029,13.2980,4.59982,2470.203,2020-12-07T05:38:18Z
2020-12-07T03:40:22Z,42.805,6.029,13.2982,4.59982,2470.203,2020-12-07T05:41:21Z
2020-12-07T03:43:26Z,42.805,6.029,13.2983,4.59982,2470.156,2020-12-07T05:44:24Z
2020-12-07T03:46:29Z,42.805,6.029,13.2979,4.59981,2470.18,2020-12-07T05:47:27Z
2020-12-07T03:49:32Z,42.805,6.029,13.2977,4.59982,2470.203,2020-12-07T05:50:30Z
2020-12-07T03:52:35Z,42.805,6.029,13.2980,4.59981,2470.171,2020-12-07T05:53:33Z
2020-12-07T03:55:38Z,42.805,6.029,13.2980,4.59982,2470.18,2020-12-07T05:56:36Z
2020-12-07T03:58:41Z,42.805,6.029,13.2978,4.59982,2470.203,2020-12-07T05:59:39Z
2020-12-07T04:01:44Z,42.805,6.029,13.2981,4.59981,2470.194,2020-12-07T06:02:42Z
2020-12-07T04:04:47Z,42.805,6.029,13.2978,4.59981,2470.18,2020-12-07T06:05:46Z
2020-12-07T04:07:50Z,42.805,6.029,13.2976,4.59981,2470.171,2020-12-07T06:08:49Z
2020-12-07T04:10:54Z,42.805,6.029,13.2981,4.59983,2470.18,2020-12-07T06:11:52Z
2020-12-07T04:13:57Z,42.805,6.029,13.2983,4.59981,2470.156,2020-12-07T06:14:55Z
2020-12-07T04:17:00Z,42.805,6.029,13.2976,4.59983,2470.18,2020-12-07T06:17:58Z
2020-12-07T04:20:03Z,42.805,6.029,13.2982,4.59982,2470.156,2020-12-07T06:21:01Z
2020-12-07T04:23:06Z,42.805,6.029,13.2983,4.59983,2470.171,2020-12-07T06:24:04Z
2020-12-07T04:26:09Z,42.805,6.029,13.2980,4.59981,2470.171,2020-12-07T06:27:07Z
2020-12-07T04:29:12Z,42.805,6.029,13.2979,4.59982,2470.156,2020-12-07T06:30:11Z
2020-12-07T04:32:15Z,42.805,6.029,13.2980,4.59982,2470.156,2020-12-07T06:33:14Z
2020-12-07T04:35:18Z,42.805,6.029,13.2982,4.59983,2470.156,2020-12-07T06:36:17Z
2020-12-07T04:38:22Z,42.805,6.029,13.2976,4.59983,2470.194,2020-12-07T06:39:20Z
2020-12-07T04:41:25Z,42.805,6.029,13.2980,4.59983,2470.18,2020-12-07T06:42:23Z
2020-12-07T04:44:28Z,42.805,6.029,13.2980,4.59983,2470.156,2020-12-07T06:45:26Z
2020-12-07T04:47:31Z,42.805,6.029,13.2982,4.59984,2470.133,2020-12-07T06:48:29Z
2020-12-07T04:50:34Z,42.805,6.029,13.2978,4.59983,2470.18,2020-12-07T06:51:32Z
2020-12-07T04:53:37Z,42.805,6.029,13.2982,4.59983,2470.18,2020-12-07T06:54:35Z
2020-12-07T04:56:40Z,42.805,6.029,13.2982,4.59983,2470.147,2020-12-07T06:57:39Z
2020-12-07T04:59:43Z,42.805,6.029,13.2979,4.59983,2470.194,2020-12-07T07:00:42Z
2020-12-07T05:02:47Z,42.805,6.029,13.2983,4.59984,2470.194,2020-12-07T07:03:45Z
2020-12-07T05:05:50Z,42.805,6.029,13.2983,4.59985,2470.18,2020-12-07T07:06:48Z
2020-12-07T05:08:53Z,42.805,6.029,13.2980,4.59985,2470.194,2020-12-07T07:09:51Z
2020-12-07T05:11:56Z,42.805,6.029,13.2984,4.59987,2470.156,2020-12-07T07:12:54Z
2020-12-07T05:14:59Z,42.805,6.029,13.2983,4.59986,2470.18,2020-12-07T07:15:57Z
2020-12-07T05:18:02Z,42.805,6.029,13.2983,4.59986,2470.156,2020-12-07T07:19:00Z
2020-12-07T05:21:05Z,42.805,6.029,13.2984,4.59986,2470.171,2020-12-07T07:22:03Z
2020-12-07T05:24:08Z,42.805,6.029,13.2983,4.59987,2470.194,2020-12-07T07:25:07Z
2020-12-07T05:27:11Z,42.805,6.029,13.2986,4.59986,2470.18,2020-12-07T07:28:10Z
2020-12-07T05:30:15Z,42.805,6.029,13.2984,4.59987,2470.156,2020-12-07T07:31:13Z
2020-12-07T05:33:18Z,42.805,6.029,13.2984,4.59987,2470.194,2020-12-07T07:34:16Z
2020-12-07T05:36:21Z,42.805,6.029,13.2986,4.59988,2470.18,2020-12-07T07:37:19Z
2020-12-07T05:39:24Z,42.805,6.029,13.2985,4.59988,2470.133,2020-12-07T07:40:22Z
2020-12-07T05:42:27Z,42.805,6.029,13.2984,4.59988,2470.171,2020-12-07T07:43:25Z
2020-12-07T05:45:30Z,42.805,6.029,13.2986,4.59988,2470.156,2020-12-07T07:46:28Z
2020-12-07T05:48:33Z,42.805,6.029,13.2988,4.59988,2470.171,2020-12-07T07:49:32Z
2020-12-07T05:51:36Z,42.805,6.029,13.2987,4.59990,2470.18,2020-12-07T07:52:35Z
2020-12-07T05:54:39Z,42.805,6.029,13.2986,4.59996,2470.156,2020-12-07T07:55:38Z
2020-12-07T05:57:43Z,42.805,6.029,13.2986,4.59987,2470.18,2020-12-07T07:58:41Z
2020-12-07T06:00:46Z,42.805,6.029,13.2985,4.59995,2470.18,2020-12-07T08:01:44Z
2020-12-07T06:03:49Z,42.805,6.029,13.2991,4.59992,2470.18,2020-12-07T08:04:47Z
2020-12-07T06:06:52Z,42.805,6.029,13.2987,4.59987,2470.133,2020-12-07T08:07:50Z
2020-12-07T06:09:55Z,42.805,6.029,13.2983,4.59999,2470.18,2020-12-07T08:10:53Z
2020-12-07T06:12:58Z,42.805,6.029,13.3003,4.60012,2470.156,2020-12-07T08:13:56Z
2020-12-07T06:16:01Z,42.805,6.029,13.2997,4.60020,2470.133,2020-12-07T08:17:00Z
2020-12-07T06:19:04Z,42.805,6.029,13.2988,4.59993,2470.171,2020-12-07T08:20:03Z
2020-12-07T06:22:08Z,42.805,6.029,13.2990,4.60021,2470.18,2020-12-07T08:23:06Z
2020-12-07T06:25:11Z,42.805,6.029,13.2997,4.60000,2470.156,2020-12-07T08:26:09Z
2020-12-07T06:28:14Z,42.805,6.029,13.2991,4.60002,2470.171,2020-12-07T08:29:12Z
2020-12-07T06:31:17Z,42.805,6.029,13.2996,4.60009,2470.18,2020-12-07T08:32:15Z
2020-12-07T06:34:20Z,42.805,6.029,13.2990,4.60031,2470.18,2020-12-07T08:35:18Z
2020-12-07T06:37:23Z,42.805,6.029,13.2997,4.60026,2470.133,2020-12-07T08:38:21Z
2020-12-07T06:40:26Z,42.805,6.029,13.2990,4.60000,2470.194,2020-12-07T08:41:25Z
2020-12-07T06:43:29Z,42.805,6.029,13.2990,4.59999,2470.194,2020-12-07T08:44:28Z
2020-12-07T06:46:32Z,42.805,6.029,13.2988,4.60003,2470.18,2020-12-07T08:47:31Z
2020-12-07T06:49:36Z,42.805,6.029,13.2993,4.59993,2470.18,2020-12-07T08:50:34Z
2020-12-07T06:52:39Z,42.805,6.029,13.2998,4.59997,2470.171,2020-12-07T08:53:37Z
2020-12-07T06:55:42Z,42.805,6.029,13.2982,4.59988,2470.156,2020-12-07T08:56:40Z
2020-12-07T06:58:45Z,42.805,6.029,13.2979,4.59982,2470.18,2020-12-07T08:59:43Z
2020-12-07T07:01:48Z,42.805,6.029,13.2987,4.59986,2470.18,2020-12-07T09:02:46Z
2020-12-07T07:04:51Z,42.805,6.029,13.2985,4.59991,2470.18,2020-12-07T09:05:49Z
2020-12-07T07:07:54Z,42.805,6.029,13.2985,4.59984,2470.156,2020-12-07T09:08:53Z
2020-12-07T07:10:57Z,42.805,6.029,13.2994,4.60022,2470.18,2020-12-07T09:11:56Z
2020-12-07T07:14:01Z,42.805,6.029,13.2989,4.59994,2470.156,2020-12-07T09:14:59Z
2020-12-07T07:17:04Z,42.805,6.029,13.2985,4.59991,2470.156,2020-12-07T09:18:02Z
2020-12-07T07:20:07Z,42.805,6.029,13.2986,4.59991,2470.203,2020-12-07T09:21:05Z
2020-12-07T07:23:10Z,42.805,6.029,13.2993,4.59999,2470.217,2020-12-07T09:24:08Z
2020-12-07T07:26:13Z,42.805,6.029,13.2992,4.60002,2470.203,2020-12-07T09:27:11Z
2020-12-07T07:29:16Z,42.805,6.029,13.2991,4.60007,2470.194,2020-12-07T09:30:14Z
2020-12-07T07:32:19Z,42.805,6.029,13.3000,4.60024,2470.18,2020-12-07T09:33:17Z
2020-12-07T07:35:22Z,42.805,6.029,13.2996,4.60013,2470.18,2020-12-07T09:36:21Z
2020-12-07T07:38:25Z,42.805,6.029,13.2994,4.60022,2470.189,2020-12-07T09:39:24Z
2020-12-07T07:41:29Z,42.805,6.029,13.3005,4.60019,2470.227,2020-12-07T09:42:27Z
2020-12-07T07:44:32Z,42.805,6.029,13.2996,4.59997,2470.217,2020-12-07T09:45:30Z
2020-12-07T07:47:35Z,42.805,6.029,13.2993,4.60020,2470.18,2020-12-07T09:48:33Z
2020-12-07T07:50:38Z,42.805,6.029,13.2991,4.60022,2470.203,2020-12-07T09:51:36Z
2020-12-07T07:53:41Z,42.805,6.029,13.2993,4.59994,2470.18,2020-12-07T09:54:39Z
2020-12-07T07:56:44Z,42.805,6.029,13.3003,4.60001,2470.18,2020-12-07T09:57:42Z
2020-12-07T07:59:47Z,42.805,6.029,13.2995,4.59986,2470.217,2020-12-07T10:00:46Z
2020-12-07T08:02:50Z,42.805,6.029,13.3003,4.60008,2470.217,2020-12-07T10:03:49Z
2020-12-07T08:05:53Z,42.805,6.029,13.2986,4.59991,2470.25,2020-12-07T10:06:52Z
2020-12-07T08:08:57Z,42.805,6.029,13.2981,4.59988,2470.227,2020-12-07T10:09:55Z
2020-12-07T08:12:00Z,42.805,6.029,13.2991,4.59992,2470.227,2020-12-07T10:12:58Z
2020-12-07T08:15:03Z,42.805,6.029,13.3009,4.59989,2470.203,2020-12-07T10:16:01Z
2020-12-07T08:18:06Z,42.805,6.029,13.3004,4.60001,2470.25,2020-12-07T10:19:04Z
2020-12-07T08:21:09Z,42.805,6.029,13.2996,4.60021,2470.24,2020-12-07T10:22:07Z
2020-12-07T08:24:12Z,42.805,6.029,13.2998,4.60000,2470.227,2020-12-07T10:25:10Z
2020-12-07T08:27:15Z,42.805,6.029,13.2994,4.59999,2470.24,2020-12-07T10:28:14Z
2020-12-07T08:30:18Z,42.805,6.029,13.2987,4.59987,2470.24,2020-12-07T10:31:17Z
2020-12-07T08:33:22Z,42.805,6.029,13.2983,4.59995,2470.25,2020-12-07T10:34:20Z
2020-12-07T08:36:25Z,42.805,6.029,13.2999,4.60011,2470.24,2020-12-07T10:37:23Z
2020-12-07T08:39:28Z,42.805,6.029,13.2998,4.60013,2470.227,2020-12-07T10:40:26Z
2020-12-07T08:42:31Z,42.805,6.029,13.2997,4.59999,2470.24,2020-12-07T10:43:29Z
2020-12-07T08:45:34Z,42.805,6.029,13.2982,4.59988,2470.227,2020-12-07T10:46:32Z
2020-12-07T08:48:37Z,42.805,6.029,13.2986,4.59983,2470.25,2020-12-07T10:49:35Z
2020-12-07T08:51:40Z,42.805,6.029,13.2982,4.59988,2470.273,2020-12-07T10:52:39Z
2020-12-07T08:54:43Z,42.805,6.029,13.2998,4.59999,2470.25,2020-12-07T10:55:42Z
2020-12-07T08:57:47Z,42.805,6.029,13.2996,4.60016,2470.25,2020-12-07T10:58:45Z
2020-12-07T09:00:50Z,42.805,6.029,13.2995,4.60026,2470.273,2020-12-07T11:01:48Z
2020-12-07T09:03:53Z,42.805,6.029,13.3002,4.60036,2470.227,2020-12-07T11:04:51Z
2020-12-07T09:06:56Z,42.805,6.029,13.2993,4.60006,2470.264,2020-12-07T11:07:54Z
2020-12-07T09:09:59Z,42.805,6.029,13.2982,4.59999,2470.227,2020-12-07T11:10:57Z
2020-12-07T09:13:02Z,42.805,6.029,13.2996,4.60006,2470.287,2020-12-07T11:14:00Z
2020-12-07T09:16:05Z,42.805,6.029,13.2998,4.60003,2470.264,2020-12-07T11:17:04Z
2020-12-07T09:19:08Z,42.805,6.029,13.2992,4.60009,2470.297,2020-12-07T11:20:07Z
2020-12-07T09:22:12Z,42.805,6.029,13.2990,4.60001,2470.273,2020-12-07T11:23:10Z
2020-12-07T09:25:15Z,42.805,6.029,13.3002,4.60014,2470.297,2020-12-07T11:26:13Z
2020-12-07T09:28:18Z,42.805,6.029,13.2989,4.59993,2470.287,2020-12-07T11:29:16Z
2020-12-07T09:31:21Z,42.805,6.029,13.2983,4.59984,2470.31,2020-12-07T11:32:19Z
2020-12-07T09:34:24Z,42.805,6.029,13.2986,4.59990,2470.287,2020-12-07T11:35:22Z
2020-12-07T09:37:27Z,42.805,6.029,13.2994,4.59999,2470.31,2020-12-07T11:38:25Z
2020-12-07T09:40:30Z,42.805,6.029,13.2995,4.60015,2470.273,2020-12-07T11:41:29Z
2020-12-07T09:43:33Z,42.805,6.029,13.2982,4.59998,2470.297,2020-12-07T11:44:32Z
2020-12-07T09:46:37Z,42.805,6.029,13.2995,4.60006,2470.31,2020-12-07T11:47:35Z
2020-12-07T09:49:40Z,42.805,6.029,13.2985,4.60005,2470.31,2020-12-07T11:50:38Z
2020-12-07T09:52:43Z,42.805,6.029,13.3004,4.60028,2470.334,2020-12-07T11:53:41Z
2020-12-07T09:55:46Z,42.805,6.029,13.2991,4.60006,2470.334,2020-12-07T11:56:44Z
2020-12-07T09:58:49Z,42.805,6.029,13.2994,4.60015,2470.287,2020-12-07T11:59:47Z
2020-12-07T10:01:52Z,42.805,6.029,13.2990,4.60006,2470.273,2020-12-07T12:02:50Z
2020-12-07T10:04:55Z,42.805,6.029,13.2996,4.60024,2470.31,2020-12-07T12:05:54Z
2020-12-07T10:07:58Z,42.805,6.029,13.3001,4.60008,2470.297,2020-12-07T12:08:57Z
2020-12-07T10:11:02Z,42.805,6.029,13.2998,4.60006,2470.32,2020-12-07T12:12:00Z
2020-12-07T10:14:05Z,42.805,6.029,13.2993,4.60013,2470.32,2020-12-07T12:15:03Z
2020-12-07T10:17:08Z,42.805,6.029,13.2997,4.60019,2470.31,2020-12-07T12:18:06Z
2020-12-07T10:20:11Z,42.805,6.029,13.2996,4.60034,2470.297,2020-12-07T12:21:09Z
2020-12-07T10:23:14Z,42.805,6.029,13.2989,4.60018,2470.297,2020-12-07T12:24:12Z
2020-12-07T10:26:17Z,42.805,6.029,13.2995,4.60009,2470.334,2020-12-07T12:27:15Z
2020-12-07T10:29:20Z,42.805,6.029,13.2993,4.60027,2470.287,2020-12-07T12:30:18Z
2020-12-07T10:32:23Z,42.805,6.029,13.2998,4.59997,2470.32,2020-12-07T12:33:22Z
2020-12-07T10:35:26Z,42.805,6.029,13.2992,4.60015,2470.297,2020-12-07T12:36:25Z
2020-12-07T10:38:30Z,42.805,6.029,13.2986,4.60002,2470.297,2020-12-07T12:39:28Z
2020-12-07T10:41:33Z,42.805,6.029,13.2985,4.60006,2470.366,2020-12-07T12:42:31Z
2020-12-07T10:44:36Z,42.805,6.029,13.2989,4.60005,2470.32,2020-12-07T12:45:34Z
2020-12-07T10:47:39Z,42.805,6.029,13.2987,4.59992,2470.357,2020-12-07T12:48:37Z
2020-12-07T10:50:42Z,42.805,6.029,13.2992,4.60010,2470.32,2020-12-07T12:51:40Z
2020-12-07T10:53:45Z,42.805,6.029,13.2983,4.60003,2470.31,2020-12-07T12:54:43Z
2020-12-07T10:56:48Z,42.805,6.029,13.2986,4.60003,2470.306,2020-12-07T12:57:47Z
2020-12-07T10:59:51Z,42.805,6.029,13.2983,4.60002,2470.343,2020-12-07T13:00:50Z
2020-12-07T11:02:55Z,42.805,6.029,13.2983,4.60019,2470.297,2020-12-07T13:03:53Z
2020-12-07T11:05:58Z,42.805,6.029,13.2983,4.60004,2470.366,2020-12-07T13:06:56Z
2020-12-07T11:09:01Z,42.805,6.029,13.2988,4.60004,2470.366,2020-12-07T13:09:59Z
2020-12-07T11:12:04Z,42.805,6.029,13.2986,4.60011,2470.334,2020-12-07T13:13:02Z
2020-12-07T11:15:07Z,42.805,6.029,13.2989,4.60014,2470.357,2020-12-07T13:16:05Z
2020-12-07T11:18:10Z,42.805,6.029,13.2990,4.60018,2470.343,2020-12-07T13:19:08Z
2020-12-07T11:21:13Z,42.805,6.029,13.2995,4.60031,2470.343,2020-12-07T13:22:12Z
2020-12-07T11:24:16Z,42.805,6.029,13.2986,4.60016,2470.366,2020-12-07T13:25:15Z
2020-12-07T11:27:20Z,42.805,6.029,13.2994,4.60010,2470.357,2020-12-07T13:28:18Z
2020-12-07T11:30:23Z,42.805,6.029,13.2982,4.60004,2470.334,2020-12-07T13:31:21Z
2020-12-07T11:33:26Z,42.805,6.029,13.2983,4.59999,2470.32,2020-12-07T13:34:24Z
2020-12-07T11:36:29Z,42.805,6.029,13.2986,4.60013,2470.343,2020-12-07T13:37:27Z
2020-12-07T11:39:32Z,42.805,6.029,13.2991,4.60005,2470.343,2020-12-07T13:40:30Z
2020-12-07T11:42:35Z,42.805,6.029,13.2992,4.60014,2470.32,2020-12-07T13:43:33Z
2020-12-07T11:45:38Z,42.805,6.029,13.2990,4.60011,2470.366,2020-12-07T13:46:37Z
2020-12-07T11:48:41Z,42.805,6.029,13.2991,4.60014,2470.357,2020-12-07T13:49:40Z
2020-12-07T11:51:45Z,42.805,6.029,13.2991,4.60026,2470.38,2020-12-07T13:52:43Z
2020-12-07T11:54:48Z,42.805,6.029,13.2989,4.60005,2470.357,2020-12-07T13:55:46Z
2020-12-07T11:57:51Z,42.805,6.029,13.2982,4.60008,2470.366,2020-12-07T13:58:49Z
2020-12-07T12:00:54Z,42.805,6.029,13.2986,4.60000,2470.343,2020-12-07T14:01:52Z
2020-12-07T12:03:57Z,42.805,6.029,13.2987,4.60009,2470.38,2020-12-07T14:04:55Z
2020-12-07T12:07:00Z,42.805,6.029,13.2986,4.60017,2470.38,2020-12-07T14:07:58Z
2020-12-07T12:10:03Z,42.805,6.029,13.2989,4.60014,2470.366,2020-12-07T14:11:02Z
2020-12-07T12:13:06Z,42.805,6.029,13.2984,4.60002,2470.39,2020-12-07T14:14:05Z
2020-12-07T12:16:09Z,42.805,6.029,13.2981,4.60006,2470.343,2020-12-07T14:17:08Z
2020-12-07T12:19:13Z,42.805,6.029,13.2986,4.60003,2470.357,2020-12-07T14:20:11Z
2020-12-07T12:22:16Z,42.805,6.029,13.2984,4.59999,2470.357,2020-12-07T14:23:14Z
2020-12-07T12:25:19Z,42.805,6.029,13.2982,4.59996,2470.343,2020-12-07T14:26:17Z
2020-12-07T12:28:22Z,42.805,6.029,13.2991,4.60014,2470.404,2020-12-07T14:29:20Z
2020-12-07T12:31:25Z,42.805,6.029,13.2991,4.60024,2470.357,2020-12-07T14:32:23Z
2020-12-07T12:34:28Z,42.805,6.029,13.2990,4.60014,2470.357,2020-12-07T14:35:26Z
2020-12-07T12:37:31Z,42.805,6.029,13.2999,4.60021,2470.343,2020-12-07T14:38:30Z
2020-12-07T12:40:34Z,42.805,6.029,13.2993,4.60023,2470.343,2020-12-07T14:41:33Z
2020-12-07T12:43:38Z,42.805,6.029,13.2989,4.60006,2470.297,2020-12-07T14:44:36Z
2020-12-07T12:46:41Z,42.805,6.029,13.2980,4.60014,2470.366,2020-12-07T14:47:39Z
2020-12-07T12:49:44Z,42.805,6.029,13.2990,4.59996,2470.343,2020-12-07T14:50:42Z
2020-12-07T12:52:47Z,42.805,6.029,13.2983,4.59997,2470.366,2020-12-07T14:53:45Z
2020-12-07T12:55:50Z,42.805,6.029,13.2984,4.60006,2470.32,2020-12-07T14:56:48Z
2020-12-07T12:58:53Z,42.805,6.029,13.2986,4.59997,2470.366,2020-12-07T14:59:52Z
2020-12-07T13:01:56Z,42.805,6.029,13.2984,4.60013,2470.357,2020-12-07T15:02:55Z
2020-12-07T13:04:59Z,42.805,6.029,13.2994,4.59997,2470.343,2020-12-07T15:05:58Z
2020-12-07T13:08:03Z,42.805,6.029,13.2993,4.60029,2470.343,2020-12-07T15:09:01Z
2020-12-07T13:11:06Z,42.805,6.029,13.2991,4.60016,2470.343,2020-12-07T15:12:04Z
2020-12-07T13:14:09Z,42.805,6.029,13.2983,4.60012,2470.366,2020-12-07T15:15:07Z
2020-12-07T13:17:12Z,42.805,6.029,13.2988,4.60007,2470.343,2020-12-07T15:18:10Z
2020-12-07T13:20:15Z,42.805,6.029,13.2984,4.60003,2470.32,2020-12-07T15:21:13Z
2020-12-07T13:23:18Z,42.805,6.029,13.2986,4.60009,2470.357,2020-12-07T15:24:16Z
2020-12-07T13:26:21Z,42.805,6.029,13.2986,4.60005,2470.357,2020-12-07T15:27:20Z
2020-12-07T13:29:24Z,42.805,6.029,13.2985,4.60013,2470.334,2020-12-07T15:30:23Z
2020-12-07T13:32:28Z,42.805,6.029,13.2991,4.60003,2470.38,2020-12-07T15:33:26Z
2020-12-07T13:35:31Z,42.805,6.029,13.2984,4.60010,2470.343,2020-12-07T15:36:29Z
2020-12-07T13:38:34Z,42.805,6.029,13.2984,4.59996,2470.32,2020-12-07T15:39:32Z
2020-12-07T13:41:37Z,42.805,6.029,13.2987,4.60011,2470.343,2020-12-07T15:42:35Z
2020-12-07T13:44:40Z,42.805,6.029,13.2982,4.60009,2470.306,2020-12-07T15:45:38Z
2020-12-07T13:47:43Z,42.805,6.029,13.2983,4.60003,2470.334,2020-12-07T15:48:41Z
2020-12-07T13:50:46Z,42.805,6.029,13.2991,4.60010,2470.357,2020-12-07T15:51:45Z
2020-12-07T13:53:49Z,42.805,6.029,13.2988,4.60002,2470.357,2020-12-07T15:54:48Z
2020-12-07T13:56:53Z,42.805,6.029,13.2982,4.60001,2470.343,2020-12-07T15:57:51Z
2020-12-07T13:59:56Z,42.805,6.029,13.2984,4.60011,2470.343,2020-12-07T16:00:54Z
2020-12-07T14:02:59Z,42.805,6.029,13.2993,4.60011,2470.32,2020-12-07T16:03:57Z
2020-12-07T14:06:02Z,42.805,6.029,13.2986,4.60005,2470.334,2020-12-07T16:07:00Z
2020-12-07T14:09:05Z,42.805,6.029,13.2989,4.60011,2470.32,2020-12-07T16:10:03Z
2020-12-07T14:12:08Z,42.805,6.029,13.2982,4.60012,2470.343,2020-12-07T16:13:06Z
2020-12-07T14:15:11Z,42.805,6.029,13.2993,4.60008,2470.343,2020-12-07T16:16:10Z
2020-12-07T14:18:14Z,42.805,6.029,13.2985,4.60009,2470.33,2020-12-07T16:19:13Z
2020-12-07T14:21:18Z,42.805,6.029,13.2987,4.60000,2470.32,2020-12-07T16:22:16Z
2020-12-07T14:24:21Z,42.805,6.029,13.2995,4.60015,2470.334,2020-12-07T16:25:19Z
2020-12-07T14:27:24Z,42.805,6.029,13.2985,4.60019,2470.334,2020-12-07T16:28:22Z
2020-12-07T14:30:27Z,42.805,6.029,13.2980,4.60011,2470.343,2020-12-07T16:31:25Z
2020-12-07T14:33:30Z,42.805,6.029,13.2991,4.60023,2470.343,2020-12-07T16:34:28Z
2020-12-07T14:36:33Z,42.805,6.029,13.2991,4.60012,2470.297,2020-12-07T16:37:31Z
2020-12-07T14:39:36Z,42.805,6.029,13.2990,4.60013,2470.343,2020-12-07T16:40:35Z
2020-12-07T14:42:39Z,42.805,6.029,13.2991,4.60040,2470.33,2020-12-07T16:43:38Z
2020-12-07T14:45:43Z,42.805,6.029,13.2998,4.60026,2470.32,2020-12-07T16:46:41Z
2020-12-07T14:48:46Z,42.805,6.029,13.2985,4.60004,2470.287,2020-12-07T16:49:44Z
2020-12-07T14:51:49Z,42.805,6.029,13.2992,4.60012,2470.357,2020-12-07T16:52:47Z
2020-12-07T14:54:52Z,42.805,6.029,13.2991,4.60009,2470.297,2020-12-07T16:55:50Z
2020-12-07T14:57:55Z,42.805,6.029,13.2989,4.60011,2470.273,2020-12-07T16:58:53Z
2020-12-07T15:00:58Z,42.805,6.029,13.2992,4.60004,2470.334,2020-12-07T17:01:56Z